QFA45 YMML-WADD

Flight info

Callsign QFA45
Flight time N/A
Altitude 38000
Route KEPPA H164 LEC A461 AS A587 ONOXA G326 SRITI
Aircraft B738/M-SDE2E3FGHIRWXY/LB1

Departure

Time 2026-05-03 21:25
Airport Melbourne Airport (YMML)

Arrival

Time N/A
Airport Denpasar I Gusti Ngurah Rai International Airport (WADD)
Time Latitude Longitude Altitude Speed Heading
2026-05-03 20:44 -37.66764 144.84544 396 ft 0 kts 172°
2026-05-03 21:14 -37.66756 144.84543 396 ft 2 kts 172°
2026-05-03 21:14 -37.66743 144.84541 396 ft 2 kts 172°
2026-05-03 21:15 -37.66728 144.84538 396 ft 2 kts 172°
2026-05-03 21:15 -37.66713 144.84535 396 ft 2 kts 172°
2026-05-03 21:15 -37.66700 144.84534 396 ft 2 kts 172°
2026-05-03 21:15 -37.66686 144.84531 396 ft 2 kts 171°
2026-05-03 21:16 -37.66670 144.84535 397 ft 2 kts 216°
2026-05-03 21:16 -37.66661 144.84549 397 ft 2 kts 247°
2026-05-03 21:16 -37.66658 144.84555 397 ft 1 kts 261°
2026-05-03 21:16 -37.66658 144.84558 397 ft 1 kts 266°
2026-05-03 21:17 -37.66658 144.84563 397 ft 1 kts 262°
2026-05-03 21:17 -37.66658 144.84564 397 ft 0 kts 262°
2026-05-03 21:19 -37.66658 144.84563 397 ft 0 kts 262°
2026-05-03 21:19 -37.66660 144.84547 397 ft 2 kts 262°
2026-05-03 21:19 -37.66663 144.84517 396 ft 4 kts 262°
2026-05-03 21:19 -37.66671 144.84451 395 ft 12 kts 262°
2026-05-03 21:20 -37.66684 144.84348 392 ft 12 kts 261°
2026-05-03 21:20 -37.66695 144.84250 392 ft 11 kts 261°
2026-05-03 21:20 -37.66735 144.84190 391 ft 9 kts 183°
2026-05-03 21:20 -37.66795 144.84192 390 ft 8 kts 173°
2026-05-03 21:21 -37.66856 144.84204 389 ft 11 kts 171°
2026-05-03 21:21 -37.66984 144.84229 386 ft 21 kts 172°
2026-05-03 21:21 -37.67124 144.84255 383 ft 20 kts 171°
2026-05-03 21:21 -37.67250 144.84280 381 ft 19 kts 170°
2026-05-03 21:22 -37.67383 144.84303 378 ft 19 kts 171°
2026-05-03 21:22 -37.67650 144.84352 371 ft 19 kts 171°
2026-05-03 21:22 -37.68143 144.84447 354 ft 20 kts 171°
2026-05-03 21:22 -37.68293 144.84474 348 ft 21 kts 176°
2026-05-03 21:23 -37.68420 144.84418 345 ft 20 kts 216°
2026-05-03 21:23 -37.68532 144.84314 339 ft 21 kts 217°
2026-05-03 21:23 -37.68556 144.84181 339 ft 16 kts 292°
2026-05-03 21:23 -37.68499 144.84088 340 ft 12 kts 351°
2026-05-03 21:24 -37.68428 144.84074 343 ft 12 kts 351°
2026-05-03 21:24 -37.68118 144.84023 352 ft 79 kts 348°
2026-05-03 21:24 -37.67419 144.83885 372 ft 134 kts 352°
2026-05-03 21:24 -37.66387 144.83694 412 ft 179 kts 353°
2026-05-03 21:25 -37.65176 144.83469 781 ft 191 kts 351°
2026-05-03 21:25 -37.63906 144.83148 1258 ft 204 kts 348°
2026-05-03 21:25 -37.62609 144.82752 1916 ft 197 kts 346°
2026-05-03 21:25 -37.61400 144.82520 2265 ft 210 kts 356°
2026-05-03 21:26 -37.60010 144.82422 2799 ft 216 kts 353°
2026-05-03 21:26 -37.58562 144.82214 3439 ft 221 kts 351°
2026-05-03 21:26 -37.57067 144.81937 3959 ft 231 kts 346°
2026-05-03 21:26 -37.55642 144.81195 4616 ft 234 kts 324°
2026-05-03 21:27 -37.54445 144.79887 5295 ft 238 kts 319°
2026-05-03 21:27 -37.53261 144.78537 6017 ft 239 kts 320°
2026-05-03 21:27 -37.52060 144.77199 6670 ft 242 kts 319°
2026-05-03 21:27 -37.50872 144.75876 7328 ft 243 kts 319°
2026-05-03 21:28 -37.49663 144.74528 7954 ft 246 kts 319°
2026-05-03 21:28 -37.48455 144.73186 8559 ft 249 kts 319°
2026-05-03 21:28 -37.47275 144.71870 9225 ft 249 kts 319°
2026-05-03 21:28 -37.46040 144.70499 9754 ft 254 kts 319°
2026-05-03 21:29 -37.44797 144.69116 10359 ft 256 kts 319°
2026-05-03 21:29 -37.43487 144.67662 10582 ft 272 kts 319°
2026-05-03 21:29 -37.42100 144.66121 10905 ft 285 kts 319°
2026-05-03 21:29 -37.40672 144.64539 11161 ft 299 kts 319°
2026-05-03 21:30 -37.39146 144.62848 11403 ft 313 kts 319°
2026-05-03 21:30 -37.37587 144.61121 11894 ft 319 kts 319°
2026-05-03 21:30 -37.36077 144.59448 12444 ft 322 kts 319°
2026-05-03 21:30 -37.34472 144.57669 13067 ft 323 kts 319°
2026-05-03 21:31 -37.32853 144.55878 13656 ft 324 kts 319°
2026-05-03 21:31 -37.31227 144.54082 14227 ft 327 kts 319°
2026-05-03 21:31 -37.29604 144.52287 14748 ft 330 kts 319°
2026-05-03 21:31 -37.27967 144.50481 15305 ft 331 kts 319°
2026-05-03 21:32 -37.26337 144.48680 15847 ft 333 kts 319°
2026-05-03 21:32 -37.24701 144.46875 16334 ft 336 kts 319°
2026-05-03 21:32 -37.23024 144.45026 16812 ft 339 kts 319°
2026-05-03 21:32 -37.21363 144.43196 17312 ft 341 kts 319°
2026-05-03 21:33 -37.19714 144.41380 17798 ft 342 kts 319°
2026-05-03 21:33 -37.18036 144.39534 18229 ft 345 kts 319°
2026-05-03 21:33 -37.16302 144.37625 18722 ft 347 kts 319°
2026-05-03 21:33 -37.14579 144.35731 19201 ft 348 kts 318°
2026-05-03 21:34 -37.12835 144.33817 19692 ft 350 kts 319°
2026-05-03 21:34 -37.11101 144.31915 20189 ft 351 kts 319°
2026-05-03 21:34 -37.09360 144.30006 20631 ft 353 kts 319°
2026-05-03 21:34 -37.07612 144.28091 21085 ft 354 kts 319°
2026-05-03 21:35 -37.05822 144.26131 21528 ft 355 kts 319°
2026-05-03 21:35 -37.04058 144.24200 21914 ft 358 kts 319°
2026-05-03 21:35 -37.02297 144.22273 22321 ft 360 kts 319°
2026-05-03 21:35 -37.00518 144.20326 22781 ft 359 kts 319°
2026-05-03 21:36 -36.98723 144.18365 23074 ft 364 kts 319°
2026-05-03 21:36 -36.96904 144.16382 23545 ft 363 kts 319°
2026-05-03 21:36 -36.95114 144.14429 23834 ft 367 kts 319°
2026-05-03 21:36 -36.93283 144.12430 24292 ft 366 kts 319°
2026-05-03 21:37 -36.91454 144.10434 24526 ft 370 kts 319°
2026-05-03 21:37 -36.89621 144.08438 24890 ft 372 kts 319°
2026-05-03 21:37 -36.87750 144.06401 25268 ft 373 kts 318°
2026-05-03 21:37 -36.85911 144.04401 25608 ft 374 kts 318°
2026-05-03 21:38 -36.84020 144.02345 25938 ft 376 kts 318°
2026-05-03 21:38 -36.82143 144.00305 26283 ft 378 kts 318°
2026-05-03 21:38 -36.80256 143.98257 26619 ft 379 kts 318°
2026-05-03 21:38 -36.78332 143.96230 26913 ft 381 kts 320°
2026-05-03 21:39 -36.76378 143.94295 27209 ft 383 kts 321°
2026-05-03 21:39 -36.74382 143.92355 27587 ft 383 kts 321°
2026-05-03 21:39 -36.72370 143.90427 27874 ft 385 kts 321°
2026-05-03 21:39 -36.70364 143.88467 28064 ft 388 kts 320°
2026-05-03 21:40 -36.68368 143.86507 28393 ft 389 kts 320°
2026-05-03 21:40 -36.66372 143.84549 28592 ft 391 kts 320°
2026-05-03 21:40 -36.64330 143.82548 28891 ft 392 kts 321°
2026-05-03 21:40 -36.62304 143.80565 29103 ft 394 kts 320°
2026-05-03 21:41 -36.60246 143.78552 29398 ft 395 kts 320°
2026-05-03 21:41 -36.58229 143.76582 29646 ft 396 kts 321°
2026-05-03 21:41 -36.56198 143.74602 30087 ft 391 kts 320°
2026-05-03 21:41 -36.54167 143.72620 30362 ft 391 kts 320°
2026-05-03 21:42 -36.52153 143.70653 30620 ft 391 kts 320°
2026-05-03 21:42 -36.43671 143.62395 31781 ft 389 kts 320°
2026-05-03 21:42 -36.39093 143.57945 32403 ft 387 kts 320°
2026-05-03 21:42 -36.36959 143.55873 32575 ft 388 kts 320°
2026-05-03 21:43 -36.34809 143.53787 32833 ft 386 kts 320°
2026-05-03 21:43 -36.32677 143.51718 33049 ft 385 kts 320°
2026-05-03 21:43 -36.30532 143.49638 33217 ft 386 kts 320°
2026-05-03 21:43 -36.28393 143.47566 33429 ft 384 kts 320°
2026-05-03 21:44 -36.26252 143.45494 33586 ft 385 kts 320°
2026-05-03 21:44 -36.24100 143.43411 33727 ft 385 kts 320°
2026-05-03 21:44 -36.21950 143.41334 33926 ft 384 kts 320°
2026-05-03 21:44 -36.19805 143.39262 34088 ft 383 kts 319°
2026-05-03 21:45 -36.17672 143.37204 34218 ft 384 kts 319°
2026-05-03 21:45 -36.15554 143.35161 34338 ft 384 kts 320°
2026-05-03 21:45 -36.13434 143.33116 34530 ft 382 kts 320°
2026-05-03 21:45 -36.11333 143.31097 34703 ft 381 kts 320°
2026-05-03 21:46 -36.07094 143.27023 34960 ft 382 kts 320°
2026-05-03 21:46 -36.05000 143.25009 35105 ft 380 kts 320°
2026-05-03 21:46 -36.02903 143.22996 35230 ft 380 kts 320°
2026-05-03 21:47 -35.98754 143.19017 35362 ft 383 kts 320°
2026-05-03 21:47 -35.96670 143.17018 35530 ft 381 kts 320°
2026-05-03 21:47 -35.94605 143.15041 35648 ft 382 kts 320°
2026-05-03 21:48 -35.92510 143.13036 35753 ft 382 kts 320°
2026-05-03 21:48 -35.90435 143.11052 35928 ft 380 kts 319°
2026-05-03 21:48 -35.86245 143.07051 36117 ft 382 kts 320°
2026-05-03 21:49 -35.82048 143.03049 36308 ft 383 kts 320°
2026-05-03 21:49 -35.79933 143.01035 36417 ft 383 kts 320°
2026-05-03 21:49 -35.77848 142.99051 36553 ft 382 kts 319°
2026-05-03 21:50 -35.73647 142.95053 36717 ft 383 kts 319°
2026-05-03 21:50 -35.69424 142.91045 36850 ft 384 kts 319°
2026-05-03 21:51 -35.56015 142.78354 37310 ft 384 kts 319°
2026-05-03 21:51 -35.43350 142.66396 37644 ft 384 kts 319°
2026-05-03 21:51 -35.39887 142.63136 37740 ft 384 kts 319°
2026-05-03 21:52 -35.31593 142.55357 37954 ft 382 kts 319°
2026-05-03 21:52 -35.27395 142.51425 37957 ft 381 kts 319°
2026-05-03 21:53 -35.23248 142.47545 37955 ft 379 kts 319°
2026-05-03 21:53 -35.19080 142.43652 37968 ft 378 kts 319°
2026-05-03 21:54 -35.15510 142.40318 37963 ft 377 kts 319°
2026-05-03 21:54 -35.11385 142.36473 37963 ft 376 kts 319°
2026-05-03 21:55 -35.07258 142.32631 37967 ft 376 kts 320°
2026-05-03 21:55 -35.03139 142.28799 37971 ft 376 kts 320°
2026-05-03 21:56 -34.99018 142.24973 37972 ft 376 kts 320°
2026-05-03 21:56 -34.94908 142.21161 37975 ft 376 kts 319°
2026-05-03 21:57 -34.90776 142.17335 37975 ft 376 kts 320°
2026-05-03 21:57 -34.86665 142.13533 37979 ft 376 kts 320°
2026-05-03 21:58 -34.82506 142.09689 37976 ft 377 kts 320°
2026-05-03 21:58 -34.78378 142.05879 37971 ft 377 kts 319°
2026-05-03 21:59 -34.74238 142.02066 37975 ft 377 kts 320°
2026-05-03 21:59 -34.70083 141.98244 37971 ft 378 kts 319°
2026-05-03 22:00 -34.65930 141.94428 37979 ft 378 kts 319°
2026-05-03 22:00 -34.61796 141.90631 37978 ft 378 kts 319°
2026-05-03 22:01 -34.57649 141.86832 37979 ft 378 kts 319°
2026-05-03 22:01 -34.53496 141.83031 37975 ft 378 kts 319°
2026-05-03 22:02 -34.49338 141.79228 37981 ft 378 kts 319°
2026-05-03 22:02 -34.45164 141.75417 37983 ft 378 kts 319°
2026-05-03 22:03 -34.41021 141.71642 37980 ft 378 kts 319°
2026-05-03 22:03 -34.36883 141.67873 37988 ft 378 kts 319°
2026-05-03 22:04 -34.32742 141.64104 37986 ft 378 kts 319°
2026-05-03 22:04 -34.28614 141.60353 37985 ft 377 kts 319°
2026-05-03 22:05 -34.24491 141.56613 37983 ft 377 kts 319°
2026-05-03 22:05 -34.20356 141.52866 37989 ft 377 kts 319°
2026-05-03 22:06 -34.16232 141.49135 37984 ft 376 kts 319°
2026-05-03 22:06 -34.12130 141.45425 37994 ft 376 kts 319°
2026-05-03 22:07 -34.08033 141.41728 37990 ft 375 kts 319°
2026-05-03 22:07 -34.03932 141.38031 37997 ft 375 kts 319°
2026-05-03 22:08 -33.99821 141.34328 37997 ft 375 kts 319°
2026-05-03 22:08 -33.95681 141.30602 37998 ft 375 kts 320°
2026-05-03 22:09 -33.91537 141.26880 38001 ft 375 kts 319°
2026-05-03 22:10 -33.85338 141.21321 37998 ft 377 kts 320°
2026-05-03 22:10 -33.81188 141.17604 37991 ft 377 kts 319°
2026-05-03 22:11 -33.77021 141.13876 38001 ft 378 kts 319°
2026-05-03 22:11 -33.72853 141.10155 37990 ft 379 kts 320°
2026-05-03 22:12 -33.68642 141.06398 38000 ft 380 kts 319°
2026-05-03 22:12 -33.64457 141.02670 38004 ft 380 kts 320°
2026-05-03 22:13 -33.60254 140.98940 37998 ft 381 kts 320°
2026-05-03 22:13 -33.56050 140.95226 37999 ft 381 kts 320°
2026-05-03 22:14 -33.51808 140.91481 37998 ft 381 kts 320°
2026-05-03 22:14 -33.47592 140.87762 38003 ft 382 kts 320°
2026-05-03 22:15 -33.43376 140.84050 38002 ft 382 kts 320°
2026-05-03 22:15 -33.39123 140.80312 37998 ft 382 kts 320°
2026-05-03 22:16 -33.34898 140.76602 38011 ft 382 kts 320°
2026-05-03 22:16 -33.30654 140.72881 38009 ft 383 kts 320°
2026-05-03 22:17 -33.26400 140.69151 38011 ft 383 kts 320°
2026-05-03 22:17 -33.22145 140.65428 38016 ft 383 kts 320°
2026-05-03 22:18 -33.17892 140.61711 38024 ft 382 kts 320°
2026-05-03 22:18 -33.13663 140.58020 38022 ft 382 kts 319°
2026-05-03 22:19 -33.09402 140.54306 38025 ft 382 kts 320°
2026-05-03 22:19 -33.05171 140.50623 38022 ft 382 kts 320°
2026-05-03 22:20 -33.00906 140.46912 38025 ft 382 kts 320°
2026-05-03 22:20 -32.96647 140.43211 38032 ft 382 kts 320°
2026-05-03 22:21 -32.92410 140.39535 38026 ft 382 kts 319°
2026-05-03 22:21 -32.88167 140.35858 38032 ft 381 kts 320°
2026-05-03 22:22 -32.83905 140.32169 38039 ft 383 kts 320°
2026-05-03 22:22 -32.79648 140.28490 38032 ft 384 kts 320°
2026-05-03 22:23 -32.75355 140.24782 38033 ft 385 kts 320°
2026-05-03 22:23 -32.71052 140.21071 38033 ft 387 kts 320°
2026-05-03 22:24 -32.66730 140.17348 38033 ft 387 kts 320°
2026-05-03 22:24 -32.62421 140.13644 38043 ft 389 kts 320°
2026-05-03 22:25 -32.58081 140.09915 38035 ft 389 kts 320°
2026-05-03 22:25 -32.53706 140.06160 38050 ft 390 kts 320°
2026-05-03 22:26 -32.49348 140.02425 38038 ft 390 kts 320°
2026-05-03 22:26 -32.44999 139.98702 38043 ft 391 kts 320°
2026-05-03 22:27 -32.40623 139.94960 38042 ft 391 kts 320°
2026-05-03 22:27 -32.36248 139.91226 38059 ft 391 kts 320°
2026-05-03 22:28 -32.31867 139.87491 38048 ft 391 kts 320°
2026-05-03 22:28 -32.27503 139.83772 38060 ft 390 kts 320°
2026-05-03 22:29 -32.23124 139.80045 38047 ft 390 kts 320°
2026-05-03 22:29 -32.18761 139.76337 38060 ft 390 kts 320°
2026-05-03 22:30 -32.14408 139.72641 38060 ft 390 kts 320°
2026-05-03 22:30 -32.10022 139.68924 38057 ft 389 kts 320°
2026-05-03 22:31 -32.05658 139.65230 38075 ft 389 kts 320°
2026-05-03 22:31 -32.01271 139.61519 38060 ft 389 kts 320°
2026-05-03 22:32 -31.96915 139.57840 38068 ft 389 kts 320°
2026-05-03 22:32 -31.92548 139.54155 38065 ft 389 kts 320°
2026-05-03 22:33 -31.88177 139.50473 38067 ft 389 kts 320°
2026-05-03 22:33 -31.83817 139.46802 38070 ft 389 kts 320°
2026-05-03 22:34 -31.79440 139.43123 38071 ft 390 kts 320°
2026-05-03 22:34 -31.75042 139.39430 38069 ft 390 kts 320°
2026-05-03 22:35 -31.70660 139.35754 38074 ft 390 kts 320°
2026-05-03 22:35 -31.66280 139.32086 38070 ft 391 kts 320°
2026-05-03 22:36 -31.61868 139.28394 38074 ft 391 kts 320°
2026-05-03 22:36 -31.57467 139.24716 38078 ft 391 kts 320°
2026-05-03 22:37 -31.53080 139.21056 38078 ft 391 kts 320°
2026-05-03 22:37 -31.48672 139.17378 38079 ft 391 kts 320°
2026-05-03 22:38 -31.44262 139.13709 38075 ft 391 kts 320°
2026-05-03 22:38 -31.39865 139.10051 38078 ft 390 kts 320°
2026-05-03 22:39 -31.35455 139.06386 38081 ft 390 kts 320°
2026-05-03 22:39 -31.31083 139.02759 38079 ft 391 kts 320°
2026-05-03 22:40 -31.26672 138.99103 38079 ft 390 kts 320°
2026-05-03 22:40 -31.22263 138.95454 38082 ft 390 kts 320°
2026-05-03 22:41 -31.17871 138.91821 38078 ft 390 kts 320°
2026-05-03 22:41 -31.13473 138.88191 38079 ft 390 kts 320°
2026-05-03 22:42 -31.09051 138.84543 38079 ft 390 kts 320°
2026-05-03 22:42 -31.04641 138.80907 38079 ft 390 kts 320°
2026-05-03 22:43 -31.00251 138.77295 38076 ft 390 kts 320°
2026-05-03 22:43 -30.95833 138.73662 38065 ft 390 kts 320°
2026-05-03 22:44 -30.91412 138.70032 38064 ft 391 kts 320°
2026-05-03 22:44 -30.86991 138.66406 38089 ft 391 kts 320°
2026-05-03 22:45 -30.82583 138.62795 38082 ft 391 kts 320°
2026-05-03 22:45 -30.78145 138.59163 38084 ft 391 kts 320°
2026-05-03 22:46 -30.73704 138.55534 38088 ft 391 kts 319°
2026-05-03 22:46 -30.69295 138.51936 38092 ft 390 kts 320°
2026-05-03 22:47 -30.64866 138.48323 38087 ft 391 kts 320°
2026-05-03 22:47 -30.60428 138.44707 38089 ft 391 kts 320°
2026-05-03 22:48 -30.55877 138.41257 38090 ft 393 kts 322°
2026-05-03 22:48 -30.51241 138.37939 38092 ft 393 kts 322°
2026-05-03 22:49 -30.46601 138.34601 38095 ft 393 kts 323°
2026-05-03 22:49 -30.41992 138.31270 38095 ft 394 kts 322°
2026-05-03 22:50 -30.37355 138.27919 38094 ft 394 kts 323°
2026-05-03 22:50 -30.32715 138.24568 38094 ft 394 kts 322°
2026-05-03 22:51 -30.28086 138.21227 38097 ft 394 kts 323°
2026-05-03 22:51 -30.23463 138.17892 38099 ft 394 kts 323°
2026-05-03 22:52 -30.18843 138.14565 38101 ft 394 kts 323°
2026-05-03 22:52 -30.14285 138.11284 38105 ft 395 kts 322°
2026-05-03 22:53 -30.09663 138.07962 38103 ft 395 kts 323°
2026-05-03 22:53 -30.05051 138.04651 38102 ft 396 kts 323°
2026-05-03 22:54 -30.00392 138.01309 38107 ft 397 kts 323°
2026-05-03 22:54 -29.95744 137.97981 38106 ft 398 kts 322°
2026-05-03 22:55 -29.91052 137.94624 38106 ft 398 kts 322°
2026-05-03 22:55 -29.86388 137.91293 38109 ft 398 kts 322°
2026-05-03 22:56 -29.81716 137.87955 38108 ft 399 kts 322°
2026-05-03 22:56 -29.77060 137.84634 38111 ft 399 kts 322°
2026-05-03 22:57 -29.72386 137.81306 38108 ft 399 kts 322°
2026-05-03 22:57 -29.67696 137.77969 38110 ft 399 kts 322°
2026-05-03 22:58 -29.63009 137.74637 38111 ft 399 kts 322°
2026-05-03 22:58 -29.58334 137.71318 38109 ft 398 kts 322°
2026-05-03 22:59 -29.53644 137.67992 38109 ft 398 kts 322°
2026-05-03 22:59 -29.48974 137.64684 38113 ft 397 kts 322°
2026-05-03 23:00 -29.44308 137.61383 38110 ft 397 kts 322°
2026-05-03 23:00 -29.39651 137.58092 38109 ft 396 kts 322°
2026-05-03 23:01 -29.35006 137.54813 38112 ft 396 kts 322°
2026-05-03 23:01 -29.30359 137.51533 38112 ft 395 kts 322°
2026-05-03 23:02 -29.25720 137.48265 38114 ft 394 kts 322°
2026-05-03 23:02 -29.21080 137.44998 38115 ft 393 kts 322°
2026-05-03 23:03 -29.16448 137.41744 38113 ft 393 kts 322°
2026-05-03 23:03 -29.11811 137.38486 38109 ft 392 kts 322°
2026-05-03 23:04 -29.07211 137.35260 38113 ft 391 kts 322°
2026-05-03 23:04 -29.02584 137.32018 38114 ft 392 kts 322°
2026-05-03 23:05 -28.97974 137.28789 38109 ft 392 kts 322°
2026-05-03 23:05 -28.93365 137.25566 38112 ft 392 kts 322°
2026-05-03 23:06 -28.88730 137.22330 38110 ft 392 kts 322°
2026-05-03 23:06 -28.84097 137.19093 38114 ft 392 kts 322°
2026-05-03 23:07 -28.79492 137.15884 38115 ft 392 kts 322°
2026-05-03 23:07 -28.74865 137.12662 38116 ft 392 kts 322°
2026-05-03 23:08 -28.70233 137.09439 38112 ft 391 kts 322°
2026-05-03 23:08 -28.65638 137.06249 38118 ft 391 kts 322°
2026-05-03 23:09 -28.61000 137.03030 38117 ft 390 kts 322°
2026-05-03 23:09 -28.56396 136.99837 38117 ft 390 kts 322°
2026-05-03 23:10 -28.51821 136.96664 38120 ft 389 kts 322°
2026-05-03 23:10 -28.47238 136.93494 38120 ft 388 kts 322°
2026-05-03 23:11 -28.42648 136.90321 38128 ft 388 kts 322°
2026-05-03 23:11 -28.38046 136.87143 38126 ft 388 kts 322°
2026-05-03 23:12 -28.33490 136.84003 38127 ft 387 kts 322°
2026-05-03 23:12 -28.28900 136.80841 38128 ft 387 kts 322°
2026-05-03 23:13 -28.24343 136.77702 38127 ft 386 kts 322°
2026-05-03 23:13 -28.19767 136.74562 38130 ft 386 kts 322°
2026-05-03 23:14 -28.15179 136.71440 38138 ft 385 kts 322°
2026-05-03 23:14 -28.10621 136.68338 38134 ft 385 kts 322°
2026-05-03 23:15 -28.06049 136.65230 38136 ft 384 kts 322°
2026-05-03 23:15 -28.01499 136.62135 38139 ft 384 kts 322°
2026-05-03 23:16 -27.96941 136.59045 38139 ft 383 kts 322°
2026-05-03 23:16 -27.92422 136.55983 38145 ft 383 kts 322°
2026-05-03 23:17 -27.87848 136.52885 38143 ft 383 kts 322°
2026-05-03 23:17 -27.83306 136.49811 38144 ft 383 kts 322°
2026-05-03 23:18 -27.78783 136.46755 38147 ft 383 kts 322°
2026-05-03 23:18 -27.74243 136.43689 38150 ft 382 kts 322°
2026-05-03 23:19 -27.69697 136.40624 38144 ft 382 kts 322°
2026-05-03 23:19 -27.65150 136.37561 38150 ft 381 kts 322°
2026-05-03 23:20 -27.60628 136.34518 38148 ft 381 kts 322°
2026-05-03 23:20 -27.56091 136.31464 38148 ft 381 kts 322°
2026-05-03 23:21 -27.51581 136.28430 38151 ft 382 kts 323°
2026-05-03 23:21 -27.47023 136.25369 38152 ft 382 kts 322°
2026-05-03 23:22 -27.40216 136.20827 38151 ft 382 kts 323°
2026-05-03 23:22 -27.35696 136.17796 38152 ft 381 kts 322°
2026-05-03 23:23 -27.31149 136.14746 38151 ft 380 kts 322°
2026-05-03 23:23 -27.26650 136.11720 38156 ft 379 kts 323°
2026-05-03 23:24 -27.22129 136.08710 38150 ft 379 kts 322°
2026-05-03 23:24 -27.17639 136.05718 38151 ft 378 kts 323°
2026-05-03 23:25 -27.13161 136.02736 38152 ft 378 kts 322°
2026-05-03 23:25 -27.03951 135.96609 38164 ft 377 kts 323°